Weather History for KHUT - September, 2012

Change the Weather History Date:

Monday, September 17, 2012

  Actual Average Record
Temperature  
Mean Temperature 64 °F -  
Max Temperature 75 °F 79 °F 95 °F (2014)
Min Temperature 53 °F 53 °F 43 °F (2006)
Degree Days  
Heating Degree Days 1    
Growing Degree Days 14 (Base 50)    
Moisture  
Dew Point 55 °F    
Average Humidity 77    
Maximum Humidity 100    
Minimum Humidity 51    
Precipitation  
Precipitation 0.00 in - - ()
Sea Level Pressure  
Sea Level Pressure 29.94 in    
Wind  
Wind Speed 7 mph (North)    
Max Wind Speed 18 mph    
Max Gust Speed 26 mph    
Visibility 9 miles    
Events      
Averages and records for this station are not official NWS values.
T = Trace of Precipitation, MM = Missing Value Source: NWS Daily Summary

Daily Weather History Graph

Daily Weather History Graph

Search for Another Location

Airport or City:

Trip Planner

Search our weather history database for the weather conditions in past years. The results will help you decide how hot, cold, wet, or windy it might be!

Date:

Astronomy

Sep. 17, 2012 Rise Set
Actual Time 7:15 AM CDT 7:35 PM CDT
Civil Twilight 6:48 AM CDT 8:01 PM CDT
Nautical Twilight 6:18 AM CDT 8:32 PM CDT
Astronomical Twilight 5:46 AM CDT 9:04 PM CDT
Moon 9:03 AM CDT (9/17) 8:21 PM CDT (9/17)
Length of Visible Light 13h 12m
Length of Day
12h 20m
Waxing Crescent, 3% of the Moon is Illuminated
Sep 17
Waxing Crescent
Sep 22
First Quarter
Sep 29
Full
Oct 8
Last Quarter
Oct 15
New

Hourly Weather History & Observations

Time (CDT) Temp. Dew Point Humidity Pressure Visibility Wind Dir Wind Speed Gust Speed Precip Events Conditions
12:52 AM 60.1 °F 55.9 °F 86% 29.91 in 8.0 mi SSE 5.8 mph - N/A   Clear
1:52 AM 60.1 °F 55.9 °F 86% 29.90 in 8.0 mi South 3.5 mph - N/A   Clear
2:52 AM 59.0 °F 55.9 °F 90% 29.88 in 8.0 mi SSE 4.6 mph - N/A   Clear
3:52 AM 57.9 °F 55.0 °F 90% 29.87 in 7.0 mi SE 3.5 mph - N/A   Clear
4:52 AM 55.9 °F 55.0 °F 97% 29.87 in 6.0 mi SSE 5.8 mph - N/A   Clear
5:52 AM 57.0 °F 55.0 °F 93% 29.87 in 5.0 mi SE 4.6 mph - N/A   Clear
6:39 AM 55.4 °F 53.6 °F 94% 29.93 in 2.0 mi Calm Calm - N/A   Clear
6:52 AM 55.0 °F 54.0 °F 96% 29.89 in 8.0 mi Calm Calm - N/A   Clear
7:05 AM 53.6 °F 53.6 °F 100% 29.93 in 8.0 mi ESE 3.5 mph - N/A   Partly Cloudy
7:52 AM 57.0 °F 55.9 °F 96% 29.89 in 3.0 mi Calm Calm - N/A   Clear
8:52 AM 62.1 °F 59.0 °F 90% 29.89 in 5.0 mi SW 6.9 mph - N/A   Clear
9:52 AM 66.0 °F 60.1 °F 81% 29.89 in 10.0 mi WSW 8.1 mph - N/A   Clear
10:52 AM 70.0 °F 60.1 °F 71% 29.91 in 10.0 mi NW 6.9 mph - N/A   Clear
11:52 AM 70.0 °F 60.1 °F 71% 29.91 in 10.0 mi NW 16.1 mph 23.0 mph N/A   Scattered Clouds
12:05 PM 69.8 °F 59.0 °F 68% 29.97 in 10.0 mi NW 15.0 mph - N/A   Mostly Cloudy
12:52 PM 73.0 °F 57.9 °F 59% 29.91 in 10.0 mi NNW 11.5 mph - N/A   Scattered Clouds
1:52 PM 75.0 °F 55.9 °F 51% 29.91 in 10.0 mi North 15.0 mph 24.2 mph N/A   Clear
2:52 PM 72.0 °F 57.9 °F 61% 29.89 in 10.0 mi North 13.8 mph 21.9 mph N/A   Partly Cloudy
3:52 PM 72.0 °F 57.0 °F 59% 29.89 in 10.0 mi North 15.0 mph 19.6 mph N/A   Scattered Clouds
4:11 PM 69.8 °F 57.2 °F 64% 29.94 in 10.0 mi North 10.4 mph 21.9 mph N/A   Mostly Cloudy
4:52 PM 66.2 °F 55.4 °F 68% 29.96 in 10.0 mi North 15.0 mph 24.2 mph N/A   Overcast
5:52 PM 64.9 °F 55.0 °F 70% 29.95 in 10.0 mi North 9.2 mph 18.4 mph N/A   Overcast
6:36 PM 64.4 °F 53.6 °F 68% 30.00 in 10.0 mi North 13.8 mph 21.9 mph N/A   Overcast
6:48 PM 62.6 °F 51.8 °F 68% 30.01 in 10.0 mi NNE 18.4 mph 25.3 mph N/A   Overcast
6:52 PM 63.0 °F 52.0 °F 67% 29.98 in 10.0 mi North 18.4 mph 26.5 mph N/A   Overcast
7:30 PM 60.8 °F 51.8 °F 72% 30.02 in 10.0 mi NNE 10.4 mph 20.7 mph N/A   Mostly Cloudy
7:52 PM 61.0 °F 50.0 °F 67% 30.00 in 10.0 mi NNE 12.7 mph 23.0 mph N/A   Partly Cloudy
8:52 PM 60.1 °F 51.1 °F 72% 30.01 in 10.0 mi North 8.1 mph - N/A   Clear
9:52 PM 59.0 °F 51.1 °F 75% 30.02 in 10.0 mi North 10.4 mph - N/A   Clear
10:52 PM 57.9 °F 50.0 °F 75% 30.05 in 10.0 mi NNE 8.1 mph - N/A   Clear
11:52 PM 57.0 °F 46.0 °F 67% 30.06 in 10.0 mi North 9.2 mph - N/A   Clear